This demonstration page uses our WeatherBlox Daily Observations layout. Learn more.

Left ArrowRight Arrow

41.86663, -103.66717

Hourly Observations for April 18, 2018

Temp ( °F °C ) Dew Point ( °F °C ) Humidity (%) Winds ( mph kmh ) Pressure ( in mb ) Visibility ( mi km ) Precip ( " mm )
12:53 am 00:53 Cloudy 35 1.7 31 -0.6 85 85 WNW 14 22 30.03 1017 10 16 N/A
1:53 am 01:53 Cloudy 35 1.7 31 -0.6 85 85 W 10 17 30.03 1017 10 16 N/A
2:53 am 02:53 Mostly Clear 33 0.6 30 -1.1 89 89 WNW 13 20 30.05 1018 10 16 N/A
3:53 am 03:53 Clear 33 0.6 26 -3.3 75 75 WNW 14 22 30.08 1019 10 16 N/A
4:53 am 04:53 Clear 30 -1.1 25 -3.9 82 82 WNW 16 26 30.12 1020 10 16 N/A
5:53 am 05:53 Clear 30 -1.1 25 -3.9 82 82 WNW 13 20 30.15 1021 10 16 N/A
6:53 am 06:53 Sunny 32 undefined 25 -3.9 75 75 WNW 17 28 30.18 1022 10 16 N/A
7:53 am 07:53 Sunny 37 2.8 28 -2.2 70 70 W 13 20 30.21 1023 10 16 N/A
8:53 am 08:53 Sunny 44 6.7 31 -0.6 60 60 NW 18 30 30.20 1023 10 16 N/A
9:53 am 09:53 Sunny 48 8.9 30 -1.1 50 50 NNW 25 41 30.22 1023 10 16 N/A
10:53 am 10:53 Mostly Sunny 51 10.6 30 -1.1 44 44 NNW 22 35 30.23 1024 10 16 N/A
11:53 am 11:53 Partly Cloudy 53 11.7 28 -2.2 38 38 NNW 25 41 30.24 1024 10 16 N/A
12:53 pm 12:53 Mostly Sunny 54 12.2 25 -3.9 33 33 NW 24 39 30.22 1023 10 16 N/A
1:53 pm 13:53 Mostly Sunny 53 11.7 24 -4.4 32 32 NNW 23 37 30.22 1024 10 16 N/A
2:53 pm 14:53 Partly Cloudy 54 12.2 23 -5 30 30 NNW 22 35 30.22 1024 10 16 N/A
3:53 pm 15:53 Mostly Sunny 56 13.3 23 -5 28 28 WNW 21 33 30.20 1023 10 16 N/A
4:53 pm 16:53 Sunny 57 13.9 23 -5 27 27 NW 16 26 30.21 1023 10 16 N/A
5:53 pm 17:53 Sunny 55 12.8 22 -5.6 28 28 NW 14 22 30.22 1023 10 16 N/A
6:53 pm 18:53 Sunny 53 11.7 23 -5 31 31 NNW 13 20 30.23 1024 10 16 N/A
7:53 pm 19:53 Clear 43 6.1 23 -5 45 45 NNE 7 11 30.26 1025 10 16 N/A
8:53 pm 20:53 Clear 39 3.9 25 -3.9 57 57 NNE 8 13 30.27 1025 10 16 N/A
9:53 pm 21:53 Clear 38 3.3 25 -3.9 60 60 NE 8 13 30.28 1025 10 16 N/A
10:53 pm 22:53 Clear 35 1.7 26 -3.3 70 70 ENE 7 11 30.28 1026 10 16 N/A
11:53 pm 23:53 Clear 36 2.2 26 -3.3 67 67 N N/A 30.29 1026 10 16 N/A

Powered by AerisWeather